Regional Weather Roundup
Issued by NWS

Home | Current Version | Previous Version | Graphics & Text | Print | Product List | Glossary On
Versions: 1 2 3 4 5 6 7 8 9 10 11 12 13 14 15 16 17 18 19 20 21 22 23 24 25 26 27 28 29 30 31 32 33 34 35 36 37 38 39 40 41 42 43 44 45 46 47 48 49 50
183
ASUS43 KLMK 062002
RWRKY
KENTUCKY REGIONAL WEATHER ROUNDUP
NATIONAL WEATHER SERVICE LOUISVILLE KY
300 PM EST SAT FEB 06 2016

NOTE "FAIR" INDICATES FEW OR NO CLOUDS BELOW 12,000 FEET
WITH NO SIGNIFICANT WEATHER AND/OR OBSTRUCTIONS TO VISIBILITY.

KYZ001>023-026-027-061>063-070>075-062100-
WESTERN AND SOUTH CENTRAL KENTUCKY

CITY           SKY/WX    TMP DP  RH WIND       PRES   REMARKS
PADUCAH        SUNNY     55  21  26 W10       30.28F
HENDERSON      SUNNY     54  27  35 W6        30.26F
OWENSBORO      SUNNY     53  30  41 S8        30.28F
HOPKINSVILLE   MOSUNNY   52  20  28 SW7       30.29F
BOWLING GREEN  SUNNY     52  21  29 VRB7      30.29F
GLASGOW        NOT AVBL
$$

KYZ024-025-028>034-038-045-046-053-062100-
NORTH CENTRAL KENTUCKY

CITY           SKY/WX    TMP DP  RH WIND       PRES   REMARKS
LOUISVILLE/SDF MOSUNNY   52  23  32 W6        30.26F
LOUISVILLE/LOU SUNNY     51  24  34 VRB7      30.27F
FORT KNOX      MOSUNNY   52  25  35 W10       30.24F
$$

KYZ035>037-039>044-047>052-055>060-089>105-062100-
NORTHEAST KENTUCKY

CITY           SKY/WX    TMP DP  RH WIND       PRES   REMARKS
LEXINGTON      MOSUNNY   49  23  36 W12G18    30.25F
COVINGTON      MOSUNNY   46  22  38 SW10      30.25F
FRANKFORT      CLOUDY    50  23  34 W8        30.25F
$$

KYZ054-064>069-076>088-106>120-062100-
SOUTHEAST KENTUCKY

CITY           SKY/WX    TMP DP  RH WIND       PRES   REMARKS
JACKSON        MOSUNNY   50  20  30 NW6       30.25F
LONDON         MOSUNNY   47  18  31 W6        30.27F
SOMERSET       NOT AVBL
MIDDLESBORO    NOT AVBL
MONTICELLO     PTCLDY    48  22  35 W14       30.31F
$$





USA.gov is the U.S. government's official web portal to all federal, state and local government web resources and services.